"Timestamp","TZ","WindDir_Mean (deg)","WindSpd_Mean (km/h)","WindSpd_Min (km/h)","WindSpd_Max (km/h)","Temp_Mean (deg)","RH_Mean (%)","MSLP_Mean (hPa)","Rain_Acc (mm)","Rain_Intensity (mm/h)","Hail_Acc (hits/cm2)","Hail_Intensity (hits/cm2hr)","Solar_Mean (W/m2)"
2018/08/22 00:00:00.013,n,298,1.8,1.44,2.16,14.4,26.3,1016.72,0,0,0,0,0.027847
2018/08/22 00:01:00.000,n,181,4.32,3.6,5.04,14.3,26.3,1016.72,0,0,0,0,0.029602
2018/08/22 00:02:00.000,n,182,1.8,1.44,2.16,14.3,26.6,1016.72,0,0,0,0,0.027847
2018/08/22 00:03:00.005,n,236,3.24,2.52,4.68,14.2,26.6,1016.72,0,0,0,0,0.033112
2018/08/22 00:04:00.002,n,187,5.04,1.44,6.48,14.2,26.7,1016.72,0,0,0,0,0.024376
2018/08/22 00:05:00.000,n,261,4.32,4.32,5.04,14.1,27.1,1016.72,0,0,0,0,0.026131
2018/08/22 00:06:00.000,n,258,1.44,1.44,1.8,14.1,26.7,1016.72,0,0,0,0,0.028725
2018/08/22 00:07:00.011,n,255,6.12,3.96,7.92,14,26.8,1016.72,0,0,0,0,0.029602
2018/08/22 00:08:00.008,n,275,5.76,4.32,6.48,14,26.4,1016.72,0,0,0,0,0.023499
2018/08/22 00:09:00.005,n,237,10.8,9,12.24,14,26,1016.62,0,0,0,0,0.034828
2018/08/22 00:10:00.002,n,234,8.28,6.48,8.64,14.1,26,1016.62,0,0,0,0,0.023499
2018/08/22 00:11:00.000,n,256,6.84,6.48,8.28,14.2,25.6,1016.62,0,0,0,0,0.017395
2018/08/22 00:12:00.000,n,241,5.76,4.68,7.56,14.3,25.8,1016.62,0,0,0,0,0.036583
2018/08/22 00:13:00.000,n,259,7.92,6.84,9.36,14.3,25.5,1016.62,0,0,0,0,0.033951
2018/08/22 00:14:00.005,n,247,7.92,6.84,9,14.4,25.2,1016.62,0,0,0,0,0.033073
2018/08/22 00:15:00.002,n,253,5.4,5.04,6.48,14.5,25.3,1016.62,0,0,0,0,0.030479
2018/08/22 00:16:00.000,n,271,6.84,5.4,7.2,14.6,24.8,1016.62,0,0,0,0,0.036583
2018/08/22 00:17:00.012,n,257,9.72,9,10.8,14.6,24.5,1016.52,0,0,0,0,0.033073
2018/08/22 00:18:00.009,n,242,6.48,5.76,6.84,14.7,24.6,1016.52,0,0,0,0,0.028725
2018/08/22 00:19:00.000,n,268,7.56,6.12,8.28,14.8,24.3,1016.52,0,0,0,0,0.029602
2018/08/22 00:20:00.000,n,254,9.36,8.64,10.08,14.8,24.3,1016.52,0,0,0,0,0.030479
2018/08/22 00:21:00.000,n,225,6.48,4.32,10.08,14.9,24.1,1016.52,0,0,0,0,0.029602
2018/08/22 00:22:00.003,n,267,9,8.28,9.72,14.9,24,1016.52,0,0,0,0,0.027008
2018/08/22 00:23:00.000,n,242,11.88,10.08,13.68,15,23.9,1016.52,0,0,0,0,0.032234
2018/08/22 00:24:00.000,n,272,6.48,5.4,7.56,15,24,1016.52,0,0,0,0,0.034828
2018/08/22 00:25:00.010,n,237,6.48,5.76,7.2,15,23.9,1016.52,0,0,0,0,0.027885
2018/08/22 00:26:00.008,n,280,9,5.04,12.96,15,23.5,1016.42,0,0,0,0,0.028725
2018/08/22 00:27:00.004,n,208,1.8,0.72,2.88,15.1,23.8,1016.42,0,0,0,0,0.025253
2018/08/22 00:28:00.001,n,280,5.4,5.04,6.12,15.1,23.8,1016.42,0,0,0,0,0.027885
2018/08/22 00:29:00.000,n,251,5.04,3.96,6.84,15.1,23.8,1016.42,0,0,0,0,0.028725
2018/08/22 00:30:00.000,n,271,7.2,6.48,8.28,15.1,23.8,1016.42,0,0,0,0,0.028725
2018/08/22 00:31:00.000,n,252,7.2,4.68,7.92,15.1,23.6,1016.42,0,0,0,0,0.028725
2018/08/22 00:32:00.006,n,231,5.76,4.32,6.48,15,23.7,1016.42,0,0,0,0,0.029602
2018/08/22 00:33:00.003,n,243,6.48,5.04,7.2,15,23.8,1016.42,0,0,0,0,0.030479
2018/08/22 00:34:00.000,n,248,8.64,6.84,9.36,15,23.7,1016.42,0,0,0,0,0.029602
2018/08/22 00:35:00.013,n,239,6.84,5.76,8.64,15,23.7,1016.42,0,0,0,0,0.028725
2018/08/22 00:36:00.010,n,244,7.56,6.12,8.64,14.9,23.9,1016.32,0,0,0,0,0.026093
2018/08/22 00:37:00.000,n,277,4.68,3.96,5.4,14.9,24.1,1016.32,0,0,0,0,0.027008
2018/08/22 00:38:00.000,n,233,5.76,5.4,6.12,14.8,23.9,1016.32,0,0,0,0,0.036583
2018/08/22 00:39:00.000,n,247,4.68,3.96,5.4,14.8,23.9,1016.32,0,0,0,0,0.029602
2018/08/22 00:40:00.000,n,230,1.08,0.72,1.8,14.7,24.1,1016.32,0,0,0,0,0.026093
2018/08/22 00:41:00.000,n,201,5.4,2.88,6.84,14.6,24.2,1016.32,0,0,0,0,0.029602
2018/08/22 00:42:00.010,n,198,2.52,2.16,2.88,14.6,24.6,1016.32,0,0,0,0,0.030479
2018/08/22 00:43:00.007,n,111,0.36,0,0.72,14.5,24.8,1016.32,0,0,0,0,0.028725
2018/08/22 00:44:00.004,n,190,1.08,0.72,1.8,14.4,25,1016.32,0,0,0,0,0.026093
2018/08/22 00:45:00.002,n,257,1.8,1.08,2.88,14.4,24.9,1016.32,0,0,0,0,0.027008
2018/08/22 00:46:00.000,n,210,1.44,0.36,2.52,14.3,25.2,1016.32,0,0,0,0,0.023499
2018/08/22 00:47:00.000,n,238,2.52,1.8,3.6,14.2,25.5,1016.32,0,0,0,0,0.027008
2018/08/22 00:48:00.000,n,184,1.08,0.72,1.44,14.1,25.6,1016.32,0,0,0,0,0.027885
2018/08/22 00:49:00.000,n,198,2.88,1.44,4.32,14.1,25.7,1016.32,0,0,0,0,0.023499
2018/08/22 00:50:00.004,n,136,2.16,1.44,2.52,14,26.1,1016.22,0,0,0,0,0.029602
2018/08/22 00:51:00.001,n,250,2.88,2.16,3.24,14,26,1016.22,0,0,0,0,0.028725
2018/08/22 00:52:00.000,n,208,4.68,3.96,5.4,13.9,26.2,1016.22,0,0,0,0,0.031357
2018/08/22 00:53:00.012,n,226,3.96,2.88,4.68,13.8,26.4,1016.22,0,0,0,0,0.029602
2018/08/22 00:54:00.009,n,199,6.12,5.4,7.2,13.8,26.5,1016.22,0,0,0,0,0.027008
2018/08/22 00:55:00.000,n,251,2.88,1.44,4.32,13.7,26.5,1016.22,0,0,0,0,0.022621
2018/08/22 00:56:00.000,n,147,2.16,1.44,3.24,13.7,26.9,1016.22,0,0,0,0,0.020905
2018/08/22 00:57:00.000,n,215,2.88,1.08,5.04,13.6,26.7,1016.22,0,0,0,0,0.020905
2018/08/22 00:58:00.000,n,269,2.52,1.08,3.96,13.5,26.7,1016.22,0,0,0,0,0.026131
2018/08/22 00:59:00.009,n,147,1.8,0.72,1.8,13.5,26.9,1016.12,0,0,0,0,0.029602
2018/08/22 01:00:00.007,n,111,1.8,0.36,3.6,13.4,27.1,1016.12,0,0,0,0,0.025253
2018/08/22 01:01:00.004,n,244,3.96,3.6,4.32,13.4,27.2,1016.12,0,0,0,0,0.028725
2018/08/22 01:02:00.000,n,239,2.88,0.36,5.04,13.3,27.3,1016.12,0,0,0,0,0.026131
2018/08/22 01:03:00.013,n,199,3.6,2.16,4.32,13.3,27.3,1016.12,0,0,0,0,0.026131
2018/08/22 01:04:00.000,n,204,2.52,1.8,3.24,13.2,27.5,1016.12,0,0,0,0,0.023537
2018/08/22 01:05:00.000,n,252,3.24,2.16,3.96,13.2,27.8,1016.12,0,0,0,0,0.022659
2018/08/22 01:06:00.004,n,191,6.48,5.4,7.2,13.1,27.7,1016.12,0,0,0,0,0.024376
2018/08/22 01:07:00.001,n,246,2.52,1.08,3.6,13.1,28,1016.12,0,0,0,0,0.024376
2018/08/22 01:08:00.000,n,60,2.52,2.16,2.88,13.1,28.4,1016.12,0,0,0,0,0.021744
2018/08/22 01:09:00.000,n,254,1.44,0.72,1.8,13.1,28.2,1016.12,0,0,0,0,0.025291
2018/08/22 01:10:00.004,n,202,0.72,0.72,1.08,13.1,28.2,1016.12,0,0,0,0,0.032234
2018/08/22 01:11:00.002,n,180,4.32,3.96,5.04,13,28.2,1016.12,0,0,0,0,0.028763
2018/08/22 01:12:00.015,n,133,5.76,4.68,6.84,13,28.4,1016.12,0,0,0,0,0.030518
2018/08/22 01:13:00.000,n,155,4.68,4.32,5.04,13,28.2,1016.12,0,0,0,0,0.028763
2018/08/22 01:14:00.000,n,328,1.08,0.72,1.8,13,28.5,1016.12,0,0,0,0,0.026169
2018/08/22 01:15:00.000,n,168,2.52,1.8,3.6,13,28.5,1016.12,0,0,0,0,0.027008
2018/08/22 01:16:00.003,n,285,1.8,1.08,2.16,12.9,28.9,1016.12,0,0,0,0,0.026169
2018/08/22 01:17:00.000,n,196,1.08,0.36,2.16,12.9,29,1016.12,0,0,0,0,0.022659
2018/08/22 01:18:00.000,n,141,2.88,1.8,3.6,12.8,29.1,1016.12,0,0,0,0,0.024414
2018/08/22 01:19:00.010,n,220,0.72,0,1.08,12.8,29.5,1016.12,0,0,0,0,0.027008
2018/08/22 01:20:00.007,n,221,1.8,1.44,1.8,12.8,29.5,1016.12,0,0,0,0,0.03315
2018/08/22 01:21:00.005,n,199,3.6,2.16,4.32,12.7,29.4,1016.12,0,0,0,0,0.020905
2018/08/22 01:22:00.002,n,163,5.04,1.08,6.48,12.7,29.4,1016.02,0,0,0,0,0.027008
2018/08/22 01:23:00.000,n,276,1.8,1.44,2.52,12.7,29.3,1016.02,0,0,0,0,0.023537
2018/08/22 01:24:00.000,n,205,0.36,0.36,0.72,12.6,29.4,1016.02,0,0,0,0,0.025291
2018/08/22 01:25:00.000,n,170,3.96,3.24,5.04,12.6,29.2,1016.02,0,0,0,0,0.020027
2018/08/22 01:26:00.007,n,295,1.44,0.72,2.16,12.5,29.5,1015.92,0,0,0,0,0.036583
2018/08/22 01:27:00.000,n,329,0.36,0.36,0.72,12.5,29.5,1015.92,0,0,0,0,0.039215
2018/08/22 01:28:00.000,n,307,0.72,0,1.44,12.5,29.4,1015.92,0,0,0,0,0.03746
2018/08/22 01:29:00.011,n,92,2.88,2.52,3.6,12.5,30,1015.92,0,0,0,0,0.038338
2018/08/22 01:30:00.008,n,251,0.72,0.72,1.08,12.5,29,1015.92,0,0,0,0,0.03746
2018/08/22 01:31:00.000,n,78,1.44,0.72,2.52,12.5,29.9,1015.92,0,0,0,0,0.028725
2018/08/22 01:32:00.002,n,241,1.44,0.36,2.16,12.6,29.2,1016.02,0,0,0,0,0.028725
2018/08/22 01:33:00.000,n,114,2.16,1.08,3.24,12.6,29.7,1016.02,0,0,0,0,0.027008
2018/08/22 01:34:00.000,n,215,1.44,1.44,1.8,12.5,29.7,1016.02,0,0,0,0,0.027885
2018/08/22 01:35:00.000,n,86,3.96,3.6,5.04,12.5,30.1,1016.02,0,0,0,0,0.026169
2018/08/22 01:36:00.008,n,345,1.8,1.08,2.52,12.5,30.4,1016.02,0,0,0,0,0.027008
2018/08/22 01:37:00.005,n,105,3.24,1.08,4.68,12.5,30.5,1016.02,0,0,0,0,0.027885
2018/08/22 01:38:00.002,n,101,1.8,1.08,2.16,12.5,30.3,1016.02,0,0,0,0,0.024376
2018/08/22 01:39:00.016,n,120,0.36,0.36,0.72,12.4,30.2,1016.02,0,0,0,0,0.027008
2018/08/22 01:40:00.000,n,32,2.88,2.52,3.24,12.4,30.5,1016.02,0,0,0,0,0.025253
2018/08/22 01:41:00.000,n,358,1.44,0.72,2.16,12.4,30.5,1016.02,0,0,0,0,0.023537
2018/08/22 01:42:00.000,n,208,1.08,0.72,1.08,12.3,30.5,1016.02,0,0,0,0,0.023537
2018/08/22 01:43:00.000,n,190,0.36,0.36,0.72,12.3,30.5,1016.02,0,0,0,0,0.027885
2018/08/22 01:44:00.000,n,298,3.24,2.52,4.32,12.2,30.7,1016.02,0,0,0,0,0.026131
2018/08/22 01:45:00.010,n,197,2.88,1.8,4.32,12.1,30.6,1016.02,0,0,0,0,0.026131
2018/08/22 01:46:00.007,n,344,0.36,0.36,1.08,12.1,30.6,1016.02,0,0,0,0,0.035706
2018/08/22 01:47:00.004,n,161,1.8,0.72,2.52,12,31.1,1016.02,0,0,0,0,0.028725
2018/08/22 01:48:00.002,n,77,0.36,0,1.08,12,31.5,1016.02,0,0,0,0,0.031357
2018/08/22 01:49:00.000,n,308,1.08,0.36,1.8,12,31.4,1015.92,0,0,0,0,0.023537
2018/08/22 01:50:00.000,n,255,4.32,3.96,5.04,11.9,30.9,1015.92,0,0,0,0,0.024376
2018/08/22 01:51:00.000,n,202,2.16,1.08,2.88,11.9,31.3,1015.92,0,0,0,0,0.023537
2018/08/22 01:52:00.007,n,261,1.44,1.08,1.44,11.9,31.2,1015.92,0,0,0,0,0.01915
2018/08/22 01:53:00.005,n,60,2.16,2.16,2.52,11.9,31.6,1015.92,0,0,0,0,0.022659
2018/08/22 01:54:00.001,n,290,1.44,1.08,1.8,11.9,31.6,1015.92,0,0,0,0,0.020905
2018/08/22 01:55:00.000,n,57,3.24,2.88,3.6,11.9,31.5,1015.92,0,0,0,0,0.018311
2018/08/22 01:56:00.013,n,217,1.44,1.08,1.8,11.9,31.2,1015.92,0,0,0,0,0.028763
2018/08/22 01:57:00.007,n,217,1.44,0.72,1.8,11.9,31.3,1015.92,0,0,0,0,0.030518
2018/08/22 01:58:00.000,n,287,1.8,1.44,2.16,11.9,31.4,1015.92,0,0,0,0,0.027885
2018/08/22 01:59:00.001,n,229,4.32,3.6,5.4,11.8,31.1,1016.02,0,0,0,0,0.026131
2018/08/22 02:00:00.000,n,259,5.76,5.4,6.48,11.8,31.3,1015.92,0,0,0,0,0.027885
2018/08/22 02:01:00.000,n,286,2.88,2.16,3.24,11.7,31.4,1015.92,0,0,0,0,0.024414
2018/08/22 02:02:00.000,n,233,3.24,1.8,4.32,11.7,31.6,1015.92,0,0,0,0,0.024414
2018/08/22 02:03:00.007,n,223,0.72,0.36,0.72,11.7,31.6,1015.92,0,0,0,0,0.023537
2018/08/22 02:04:00.005,n,277,2.52,2.16,3.24,11.6,31.7,1015.92,0,0,0,0,0.022659
2018/08/22 02:05:00.002,n,250,4.32,3.6,4.68,11.6,31.8,1015.92,0,0,0,0,0.024414
2018/08/22 02:06:00.015,n,295,2.88,2.16,3.6,11.6,31.9,1015.92,0,0,0,0,0.017433
2018/08/22 02:07:00.000,n,245,1.44,1.08,1.8,11.5,31.9,1015.92,0,0,0,0,0.024414
2018/08/22 02:08:00.000,n,248,2.16,2.16,2.88,11.5,31.8,1015.92,0,0,0,0,0.026169
2018/08/22 02:09:00.001,n,244,4.68,4.32,5.04,11.5,31.9,1015.92,0,0,0,0,0.026169
2018/08/22 02:10:00.000,n,71,2.16,0.72,3.24,11.5,32.900002,1015.82,0,0,0,0,0.027924
2018/08/22 02:11:00.000,n,233,2.88,2.52,2.88,11.5,32.099998,1015.92,0,0,0,0,0.028763
2018/08/22 02:12:00.008,n,237,1.44,0.36,1.8,11.5,31.9,1015.92,0,0,0,0,0.027008
2018/08/22 02:13:00.006,n,190,2.88,2.52,3.24,11.5,32.3,1015.92,0,0,0,0,0.022659
2018/08/22 02:14:00.003,n,258,2.52,2.16,3.96,11.5,32.3,1015.92,0,0,0,0,0.024414
2018/08/22 02:15:00.016,n,350,1.8,1.8,2.16,11.5,32.3,1015.92,0,0,0,0,0.027008
2018/08/22 02:16:00.000,n,57,3.96,2.88,4.68,11.5,32.400002,1015.82,0,0,0,0,0.027924
2018/08/22 02:17:00.000,n,211,7.92,7.56,7.92,11.5,32.599998,1015.92,0,0,0,0,0.02182
2018/08/22 02:18:00.000,n,124,2.52,1.8,3.24,11.5,32,1015.82,0,0,0,0,0.02182
2018/08/22 02:19:00.006,n,40,2.16,1.44,2.88,11.5,32.3,1015.82,0,0,0,0,0.019188
2018/08/22 02:20:00.003,n,230,7.2,6.84,7.56,11.6,31.9,1015.92,0,0,0,0,0.033951
2018/08/22 02:21:00.000,n,258,3.6,3.24,3.96,11.6,32.099998,1015.92,0,0,0,0,0.030479
2018/08/22 02:22:00.009,n,51,3.6,1.44,5.04,11.6,32.7,1015.82,0,0,0,0,0.033951
2018/08/22 02:23:00.006,n,24,1.08,0.72,1.44,11.6,32.3,1015.82,0,0,0,0,0.033951
2018/08/22 02:24:00.002,n,246,6.84,6.84,7.2,11.6,32.2,1015.92,0,0,0,0,0.034828
2018/08/22 02:25:00.000,n,288,6.12,5.04,7.2,11.6,32.400002,1015.92,0,0,0,0,0.034828
2018/08/22 02:26:00.000,n,293,6.12,4.68,8.64,11.6,32.099998,1015.82,0,0,0,0,0.033112
2018/08/22 02:27:00.000,n,242,3.6,3.24,3.96,11.5,32.400002,1015.82,0,0,0,0,0.032234
2018/08/22 02:28:00.006,n,237,2.16,1.44,2.52,11.5,32.400002,1015.82,0,0,0,0,0.031357
2018/08/22 02:29:00.003,n,171,3.24,2.52,3.96,11.5,32.7,1015.82,0,0,0,0,0.031357
2018/08/22 02:30:00.001,n,205,1.44,1.08,1.8,11.5,33,1015.82,0,0,0,0,0.030479
2018/08/22 02:31:00.013,n,334,2.16,1.44,2.52,11.4,33.3,1015.82,0,0,0,0,0.030479
2018/08/22 02:32:00.010,n,267,2.88,2.52,3.24,11.4,33.099998,1015.82,0,0,0,0,0.031357
2018/08/22 02:33:00.007,n,129,1.44,0.72,1.8,11.4,33.5,1015.82,0,0,0,0,0.026131
2018/08/22 02:34:00.000,n,230,0.36,0,0.72,11.4,33.7,1015.82,0,0,0,0,0.027885
2018/08/22 02:35:00.000,n,59,2.52,1.8,3.24,11.4,34.1,1015.82,0,0,0,0,0.020027
2018/08/22 02:36:00.000,n,107,1.44,0.36,2.16,11.4,34.2,1015.82,0,0,0,0,0.026131
2018/08/22 02:37:00.000,n,135,1.44,0.36,2.88,11.3,34.3,1015.82,0,0,0,0,0.022621
2018/08/22 02:38:00.008,n,163,2.88,2.52,3.24,11.3,34.6,1015.82,0,0,0,0,0.022621
2018/08/22 02:39:00.006,n,156,1.08,0.72,1.44,11.2,34.9,1015.82,0,0,0,0,0.025253
2018/08/22 02:40:00.002,n,62,2.52,2.16,2.88,11.2,35.6,1015.82,0,0,0,0,0.020905
2018/08/22 02:41:00.000,n,30,1.8,1.08,3.24,11.2,36.3,1015.82,0,0,0,0,0.027008
2018/08/22 02:42:00.010,n,321,0.72,0.36,1.08,11.2,35.8,1015.82,0,0,0,0,0.026169
2018/08/22 02:43:00.000,n,15,1.8,1.08,2.16,11.1,35.4,1015.82,0,0,0,0,0.024414
2018/08/22 02:44:00.000,n,42,3.24,2.52,3.96,11.2,36.4,1015.82,0,0,0,0,0.026169
2018/08/22 02:45:00.003,n,314,1.8,1.8,2.16,11.2,35.9,1015.82,0,0,0,0,0.030518
2018/08/22 02:46:00.001,n,298,1.44,1.08,1.8,11.2,34.1,1015.82,0,0,0,0,0.027008
2018/08/22 02:47:00.000,n,302,1.44,0.72,1.8,11.2,34.7,1015.82,0,0,0,0,0.027008
2018/08/22 02:48:00.010,n,272,2.88,2.52,2.88,11.1,33.8,1015.72,0,0,0,0,0.022659
2018/08/22 02:49:00.008,n,274,1.8,1.8,2.16,11.1,33.7,1015.72,0,0,0,0,0.024414
2018/08/22 02:50:00.005,n,250,3.6,3.24,3.96,11.1,34,1015.72,0,0,0,0,0.020027
2018/08/22 02:51:00.002,n,222,3.96,3.6,4.32,11,34.1,1015.72,0,0,0,0,0.027008
2018/08/22 02:52:00.000,n,268,1.44,0.72,2.16,11,33.8,1015.72,0,0,0,0,0.019188
2018/08/22 02:53:00.000,n,254,4.68,4.68,5.04,11,34,1015.72,0,0,0,0,0.02182
2018/08/22 02:54:00.000,n,224,1.8,1.8,2.16,10.9,33.9,1015.72,0,0,0,0,0.014839
2018/08/22 02:55:00.006,n,34,0.72,0.36,1.8,10.9,34.3,1015.72,0,0,0,0,0.030479
2018/08/22 02:56:00.000,n,232,0.36,0.36,1.08,10.9,34.8,1015.72,0,0,0,0,0.033073
2018/08/22 02:57:00.000,n,277,2.16,1.8,2.16,10.9,35.4,1015.72,0,0,0,0,0.030479
2018/08/22 02:58:00.011,n,139,2.16,1.8,2.52,10.9,36.1,1015.72,0,0,0,0,0.028725
2018/08/22 02:59:00.009,n,255,2.16,1.8,2.52,10.8,35.3,1015.72,0,0,0,0,0.032196
2018/08/22 03:00:00.005,n,18,1.08,0.72,1.44,10.8,35.3,1015.72,0,0,0,0,0.032196
2018/08/22 03:01:00.000,n,4,0.72,0.36,0.72,10.8,36.6,1015.72,0,0,0,0,0.029602
2018/08/22 03:02:00.000,n,339,2.16,0.72,2.88,10.8,35.3,1015.72,0,0,0,0,0.027008
2018/08/22 03:03:00.000,n,322,2.16,2.16,2.52,10.9,35.4,1015.72,0,0,0,0,0.027008
2018/08/22 03:04:00.000,n,0,0.72,0.36,1.08,10.9,34.2,1015.72,0,0,0,0,0.027008
2018/08/22 03:05:00.000,n,129,0.72,0.36,1.08,10.9,34.6,1015.72,0,0,0,0,0.023499
2018/08/22 03:06:00.006,n,278,0.36,0.36,1.08,10.8,34.8,1015.72,0,0,0,0,0.027847
2018/08/22 03:07:00.004,n,11,1.08,0.72,1.08,10.8,35.9,1015.72,0,0,0,0,0.030479
2018/08/22 03:08:00.001,n,55,2.16,1.8,2.88,10.8,36.9,1015.72,0,0,0,0,0.025215
2018/08/22 03:09:00.015,n,236,1.8,1.44,2.16,10.8,36.6,1015.82,0,0,0,0,0.021744
2018/08/22 03:10:00.000,n,45,3.96,3.6,4.32,10.8,37.4,1015.72,0,0,0,0,0.022621
2018/08/22 03:11:00.000,n,99,0.72,0.36,1.08,10.8,37.8,1015.72,0,0,0,0,0.021744
2018/08/22 03:12:00.000,n,265,0.72,0.72,1.08,10.8,37.5,1015.82,0,0,0,0,0.022621
2018/08/22 03:13:00.004,n,50,2.52,2.52,2.88,10.7,37.3,1015.72,0,0,0,0,0.020866
2018/08/22 03:14:00.001,n,327,1.44,0.72,2.16,10.7,37.3,1015.72,0,0,0,0,0.026131
2018/08/22 03:15:00.000,n,113,0.36,0.36,0.36,10.7,37.3,1015.72,0,0,0,0,0.022621
2018/08/22 03:16:00.011,n,262,3.6,3.24,4.32,10.7,35.5,1015.82,0,0,0,0,0.022621
2018/08/22 03:17:00.009,n,53,1.08,0.72,1.8,10.7,36.5,1015.72,0,0,0,0,0.01915
2018/08/22 03:18:00.006,n,339,1.08,0.36,1.44,10.7,38,1015.62,0,0,0,0,0.033112
2018/08/22 03:19:00.001,n,160,0.72,0.72,1.08,10.7,38,1015.72,0,0,0,0,0.025291
2018/08/22 03:20:00.000,n,245,2.16,1.8,2.88,10.6,36.6,1015.72,0,0,0,0,0.032234
2018/08/22 03:21:00.000,n,333,2.52,1.44,3.24,10.6,35.7,1015.72,0,0,0,0,0.027008
2018/08/22 03:22:00.000,n,13,2.88,2.52,3.24,10.5,35.6,1015.62,0,0,0,0,0.031357
2018/08/22 03:23:00.006,n,248,2.52,1.8,3.24,10.6,34.6,1015.72,0,0,0,0,0.027008
2018/08/22 03:24:00.003,n,267,4.32,3.24,5.4,10.6,34.2,1015.72,0,0,0,0,0.028763
2018/08/22 03:25:00.000,n,106,1.44,0.72,2.16,10.7,34.7,1015.72,0,0,0,0,0.025291
2018/08/22 03:26:00.013,n,342,2.88,2.16,3.24,10.7,35.7,1015.62,0,0,0,0,0.024414
2018/08/22 03:27:00.011,n,239,3.24,2.88,3.6,10.7,33.400002,1015.62,0,0,0,0,0.026131
2018/08/22 03:28:00.000,n,224,2.16,1.44,2.52,10.8,33.8,1015.62,0,0,0,0,0.023499
2018/08/22 03:29:00.000,n,245,5.04,4.68,5.4,10.8,34,1015.72,0,0,0,0,0.024414
2018/08/22 03:30:00.002,n,296,0.72,0.36,1.08,10.8,33.6,1015.72,0,0,0,0,0.027008
2018/08/22 03:31:00.000,n,133,1.08,0.72,1.44,10.7,33.9,1015.72,0,0,0,0,0.025291
2018/08/22 03:32:00.000,n,351,2.52,2.16,2.88,10.7,34.9,1015.72,0,0,0,0,0.020905
2018/08/22 03:33:00.009,n,232,1.08,0.36,1.44,10.7,35.9,1015.72,0,0,0,0,0.028725
2018/08/22 03:34:00.005,n,177,1.08,0.72,1.08,10.8,36,1015.62,0,0,0,0,0.028725
2018/08/22 03:35:00.002,n,64,2.88,1.08,4.68,10.7,36,1015.62,0,0,0,0,0.027847
2018/08/22 03:36:00.015,n,201,2.16,1.08,2.52,10.7,35.5,1015.72,0,0,0,0,0.034828
2018/08/22 03:37:00.000,n,117,2.16,1.8,2.52,10.7,36.1,1015.72,0,0,0,0,0.0383
2018/08/22 03:38:00.000,n,150,2.52,2.52,2.88,10.6,35.8,1015.62,0,0,0,0,0.034828
2018/08/22 03:39:00.000,n,288,1.8,1.44,1.8,10.6,35.2,1015.62,0,0,0,0,0.033951
2018/08/22 03:40:00.004,n,279,1.8,1.8,2.16,10.6,34.7,1015.72,0,0,0,0,0.035667
2018/08/22 03:41:00.001,n,237,3.24,2.88,3.6,10.6,35.6,1015.72,0,0,0,0,0.030479
2018/08/22 03:42:00.000,n,149,1.44,1.08,2.52,10.5,34.3,1015.72,0,0,0,0,0.030479
2018/08/22 03:43:00.011,n,347,3.24,2.88,4.68,10.6,36,1015.62,0,0,0,0,0.028725
2018/08/22 03:44:00.008,n,270,2.52,2.52,2.88,10.6,34.7,1015.72,0,0,0,0,0.033112
2018/08/22 03:45:00.005,n,280,1.44,0.72,2.16,10.6,34.7,1015.72,0,0,0,0,0.028725
2018/08/22 03:46:00.002,n,319,0.72,0,1.8,10.7,34.5,1015.72,0,0,0,0,0.025253
2018/08/22 03:47:00.000,n,111,1.08,0.36,1.8,10.7,36.2,1015.72,0,0,0,0,0.029602
2018/08/22 03:48:00.000,n,223,2.52,2.16,2.88,10.7,35.5,1015.82,0,0,0,0,0.024376
2018/08/22 03:49:00.000,n,283,1.44,1.44,1.8,10.7,35.2,1015.82,0,0,0,0,0.023499
2018/08/22 03:50:00.006,n,134,1.44,1.08,1.8,10.7,35.9,1015.82,0,0,0,0,0.021782
2018/08/22 03:51:00.002,n,204,1.08,0.36,1.44,10.6,36.1,1015.82,0,0,0,0,0.022621
2018/08/22 03:52:00.000,n,1,0.36,0,0.36,10.5,36.1,1015.82,0,0,0,0,0.022621
2018/08/22 03:53:00.013,n,264,0.72,0.36,1.08,10.5,36.7,1015.82,0,0,0,0,0.024376
2018/08/22 03:54:00.010,n,153,1.8,1.08,2.52,10.4,36.9,1015.82,0,0,0,0,0.020866
2018/08/22 03:55:00.000,n,132,2.52,2.52,2.88,10.4,37.2,1015.82,0,0,0,0,0.020866
2018/08/22 03:56:00.000,n,116,2.52,2.52,2.88,10.3,37.9,1015.82,0,0,0,0,0.025291
2018/08/22 03:57:00.000,n,135,2.88,2.16,3.24,10.2,39,1015.82,0,0,0,0,0.031395
2018/08/22 03:58:00.000,n,147,4.68,4.32,5.04,10.2,41.7,1015.82,0,0,0,0,0.031395
2018/08/22 03:59:00.006,n,150,4.32,3.96,4.68,10.1,42.6,1015.82,0,0,0,0,0.030518
2018/08/22 04:00:00.002,n,126,1.8,1.44,2.52,10,43.4,1015.82,0,0,0,0,0.033989
2018/08/22 04:01:00.000,n,139,1.08,1.08,1.08,9.9,44.4,1015.82,0,0,0,0,0.031395
2018/08/22 04:02:00.005,n,141,2.52,2.16,3.6,9.9,46.8,1015.92,0,0,0,0,0.028763
2018/08/22 04:03:00.010,n,154,3.24,2.52,3.96,9.8,45.6,1015.92,0,0,0,0,0.033112
2018/08/22 04:04:00.000,n,153,1.44,1.08,1.44,9.8,44.8,1015.92,0,0,0,0,0.030518
2018/08/22 04:05:00.000,n,183,2.52,2.16,2.52,9.8,46,1015.92,0,0,0,0,0.027924
2018/08/22 04:06:00.000,n,180,4.68,4.32,5.76,9.8,44.6,1015.92,0,0,0,0,0.02964
2018/08/22 04:07:00.000,n,170,5.04,4.32,5.76,9.9,44.7,1015.92,0,0,0,0,0.02964
2018/08/22 04:08:00.004,n,148,4.32,3.96,5.04,9.9,45.8,1015.82,0,0,0,0,0.02964
2018/08/22 04:09:00.009,n,174,1.8,1.08,2.52,9.9,45.5,1015.82,0,0,0,0,0.026169
2018/08/22 04:10:00.000,n,129,2.52,2.16,2.88,9.9,45.6,1015.92,0,0,0,0,0.02964
2018/08/22 04:11:00.002,n,154,3.6,3.24,3.6,9.9,44.8,1015.92,0,0,0,0,0.025291
2018/08/22 04:12:00.007,n,143,5.04,5.04,5.4,9.8,47.4,1015.92,0,0,0,0,0.025291
2018/08/22 04:13:00.000,n,142,2.52,2.16,2.88,9.8,47.3,1015.92,0,0,0,0,0.024414
2018/08/22 04:14:00.001,n,143,1.08,0.72,1.08,9.7,46.3,1015.92,0,0,0,0,0.027008
2018/08/22 04:15:00.000,n,164,0.72,0,1.08,9.7,49.4,1015.82,0,0,0,0,0.024414
2018/08/22 04:16:00.000,n,126,1.44,1.44,1.8,9.6,50.5,1015.92,0,0,0,0,0.021782
2018/08/22 04:17:00.000,n,206,0.72,0.36,0.72,9.6,49.7,1015.82,0,0,0,0,0.032272
2018/08/22 04:18:00.005,n,222,1.8,1.44,2.16,9.5,49.8,1015.82,0,0,0,0,0.021782
2018/08/22 04:19:00.010,n,251,0.72,0.36,1.08,9.4,49.5,1015.82,0,0,0,0,0.021782
2018/08/22 04:20:00.000,n,101,1.44,0.72,2.52,9.4,50.4,1015.82,0,0,0,0,0.030518
2018/08/22 04:21:00.004,n,52,2.88,2.16,3.6,9.4,52.8,1015.82,0,0,0,0,0.025291
2018/08/22 04:22:00.000,n,80,1.44,0.72,2.52,9.5,52.7,1015.82,0,0,0,0,0.020065
2018/08/22 04:23:00.000,n,105,2.16,1.8,2.52,9.5,53.5,1015.92,0,0,0,0,0.026169
2018/08/22 04:24:00.003,n,97,1.8,1.8,1.8,9.5,53.9,1015.82,0,0,0,0,0.021782
2018/08/22 04:25:00.000,n,130,1.8,1.8,2.16,9.4,54,1015.82,0,0,0,0,0.020943
2018/08/22 04:26:00.000,n,125,3.6,3.24,3.96,9.3,53.2,1015.82,0,0,0,0,0.024414
2018/08/22 04:27:00.000,n,149,4.68,3.96,4.68,9.3,53.1,1015.92,0,0,0,0,0.022659
2018/08/22 04:28:00.006,n,146,4.68,3.6,5.4,9.2,52.5,1015.92,0,0,0,0,0.019188
2018/08/22 04:29:00.010,n,147,5.4,4.32,6.12,9.2,54.2,1015.92,0,0,0,0,0.018311
2018/08/22 04:30:00.015,n,152,3.96,3.96,4.32,9.1,52.9,1015.82,0,0,0,0,0.028763
2018/08/22 04:31:00.001,n,150,1.08,0.36,2.88,9.1,54.6,1015.82,0,0,0,0,0.033112
2018/08/22 04:32:00.000,n,229,1.08,0.72,1.8,9.1,54.5,1015.82,0,0,0,0,0.030518
2018/08/22 04:33:00.000,n,167,0.36,0.36,0.36,9.1,54.1,1015.82,0,0,0,0,0.031395
2018/08/22 04:34:00.000,n,74,1.08,0.72,2.52,9.1,54.4,1015.82,0,0,0,0,0.024414
2018/08/22 04:35:00.005,n,28,3.6,2.52,4.68,9.1,55,1015.82,0,0,0,0,0.028763
2018/08/22 04:36:00.010,n,8,2.88,2.16,3.96,9.2,54.4,1015.82,0,0,0,0,0.027008
2018/08/22 04:37:00.000,n,210,1.44,1.08,1.8,9.3,53.9,1015.92,0,0,0,0,0.025291
2018/08/22 04:38:00.004,n,149,0.72,0.36,1.08,9.3,54.2,1015.92,0,0,0,0,0.023537
2018/08/22 04:39:00.009,n,156,1.8,0.36,2.16,9.3,54.1,1015.92,0,0,0,0,0.024414
2018/08/22 04:40:00.000,n,139,2.52,1.8,2.52,9.3,54.5,1015.92,0,0,0,0,0.025291
2018/08/22 04:41:00.002,n,156,3.24,2.52,3.6,9.2,54.4,1015.92,0,0,0,0,0.028763
2018/08/22 04:42:00.000,n,146,2.16,1.8,2.52,9.1,53.8,1015.92,0,0,0,0,0.027924
2018/08/22 04:43:00.000,n,124,1.44,0.72,2.16,9.1,54.4,1015.92,0,0,0,0,0.023537
2018/08/22 04:44:00.001,n,150,3.24,2.88,3.6,9.1,54.7,1015.92,0,0,0,0,0.024414
2018/08/22 04:45:00.006,n,125,2.88,2.52,3.24,9,51.8,1015.92,0,0,0,0,0.023537
2018/08/22 04:46:00.011,n,62,1.44,0.36,1.8,9,53.3,1015.82,0,0,0,0,0.024414
2018/08/22 04:47:00.000,n,211,1.44,0.72,2.16,9.1,53.9,1015.92,0,0,0,0,0.023537
2018/08/22 04:48:00.006,n,97,0.72,0.36,1.08,9.1,53.8,1015.92,0,0,0,0,0.023537
2018/08/22 04:49:00.000,n,190,1.44,1.08,2.16,9.1,53.9,1015.92,0,0,0,0,0.026131
2018/08/22 04:50:00.000,n,194,1.08,1.08,1.44,9,53.9,1015.92,0,0,0,0,0.032234
2018/08/22 04:51:00.002,n,295,0.72,0.36,1.08,9,53.4,1015.92,0,0,0,0,0.027046
2018/08/22 04:52:00.000,n,19,1.44,0.72,2.16,9,52.9,1015.92,0,0,0,0,0.02964
2018/08/22 04:53:00.000,n,175,0.72,0.36,1.08,9,53,1016.02,0,0,0,0,0.027885
2018/08/22 04:54:00.003,n,127,0.72,0.72,1.08,9,51.9,1016.02,0,0,0,0,0.030479
2018/08/22 04:55:00.008,n,152,2.52,2.52,2.88,9,50.7,1016.02,0,0,0,0,0.024414
2018/08/22 04:56:00.013,n,156,3.96,3.24,4.68,9,50.6,1016.02,0,0,0,0,0.02964